Time,TemperatureF,DewpointF,PressureIn,WindDirection,WindDirectionDegrees,WindSpeedMPH,WindSpeedGustMPH,Humidity,HourlyPrecipIn,Conditions,Clouds,dailyrainin,SoftwareType,DateUTC
2013-06-17 00:00:00,57.6,55.9,29.81,East,90,0.0,0.0,94,0.00,,,0.00,VWS V14.01,2013-06-17 04:00:00,
2013-06-17 00:05:00,57.5,55.8,29.81,East,90,0.0,0.0,94,0.00,,,0.00,VWS V14.01,2013-06-17 04:05:00,
2013-06-17 00:10:00,57.4,55.7,29.81,East,90,0.0,0.0,94,0.00,,,0.00,VWS V14.01,2013-06-17 04:10:00,
2013-06-17 00:15:00,57.4,55.7,29.81,East,90,0.0,0.0,94,0.00,,,0.00,VWS V14.01,2013-06-17 04:15:00,
2013-06-17 00:20:00,57.4,55.7,29.81,East,90,0.0,1.0,94,0.00,,,0.00,VWS V14.01,2013-06-17 04:20:00,
2013-06-17 00:25:00,57.5,55.8,29.81,East,90,0.0,1.0,94,0.00,,,0.00,VWS V14.01,2013-06-17 04:25:00,
2013-06-17 00:30:00,57.6,55.9,29.80,East,90,0.0,2.0,94,0.00,,,0.00,VWS V14.01,2013-06-17 04:30:00,
2013-06-17 00:35:00,57.7,56.0,29.80,East,90,0.0,1.0,94,0.00,,,0.00,VWS V14.01,2013-06-17 04:35:00,
2013-06-17 00:40:00,57.5,55.8,29.81,East,90,0.0,0.0,94,0.00,,,0.00,VWS V14.01,2013-06-17 04:40:00,
2013-06-17 00:45:00,57.4,55.7,29.81,East,90,0.0,1.0,94,0.00,,,0.00,VWS V14.01,2013-06-17 04:45:00,
2013-06-17 00:50:00,57.4,55.7,29.80,East,90,0.0,1.0,94,0.00,,,0.00,VWS V14.01,2013-06-17 04:50:00,
2013-06-17 00:55:00,57.3,55.6,29.81,East,90,0.0,0.0,94,0.00,,,0.00,VWS V14.01,2013-06-17 04:55:00,
2013-06-17 01:00:00,57.2,55.5,29.81,East,90,0.0,1.0,94,0.00,,,0.00,VWS V14.01,2013-06-17 05:00:00,
2013-06-17 01:05:00,57.1,55.4,29.80,East,90,0.0,1.0,94,0.00,,,0.00,VWS V14.01,2013-06-17 05:05:00,
2013-06-17 01:10:00,57.0,55.3,29.81,East,90,0.0,1.0,94,0.00,,,0.00,VWS V14.01,2013-06-17 05:10:00,
2013-06-17 01:15:00,56.8,55.1,29.81,East,90,0.0,1.0,94,0.00,,,0.00,VWS V14.01,2013-06-17 05:15:00,
2013-06-17 01:20:00,56.6,54.9,29.80,East,90,0.0,2.0,94,0.00,,,0.00,VWS V14.01,2013-06-17 05:20:00,
2013-06-17 01:25:00,56.7,55.0,29.80,East,90,0.0,2.0,94,0.00,,,0.00,VWS V14.01,2013-06-17 05:25:00,
2013-06-17 01:30:00,56.8,55.1,29.80,East,90,0.0,2.0,94,0.00,,,0.00,VWS V14.01,2013-06-17 05:30:00,
2013-06-17 01:35:00,56.8,55.1,29.80,East,90,0.0,2.0,94,0.00,,,0.00,VWS V14.01,2013-06-17 05:35:00,
2013-06-17 01:40:00,56.7,55.0,29.80,East,90,0.0,3.0,94,0.00,,,0.00,VWS V14.01,2013-06-17 05:40:00,
2013-06-17 01:45:00,56.5,54.8,29.80,East,90,0.0,2.0,94,0.00,,,0.00,VWS V14.01,2013-06-17 05:45:00,
2013-06-17 01:50:00,56.6,54.9,29.80,East,90,1.0,3.0,94,0.00,,,0.00,VWS V14.01,2013-06-17 05:50:00,
2013-06-17 01:55:00,56.7,55.3,29.80,East,90,2.0,6.0,95,0.00,,,0.00,VWS V14.01,2013-06-17 05:55:00,
2013-06-17 02:00:00,57.0,55.3,29.79,East,90,1.0,3.0,94,0.00,,,0.00,VWS V14.01,2013-06-17 06:00:00,
2013-06-17 02:05:00,56.7,55.0,29.79,East,90,1.0,3.0,94,0.00,,,0.00,VWS V14.01,2013-06-17 06:05:00,
2013-06-17 02:10:00,56.6,54.9,29.80,ENE,68,2.0,4.0,94,0.00,,,0.00,VWS V14.01,2013-06-17 06:10:00,
2013-06-17 02:15:00,56.7,55.0,29.79,East,90,0.0,2.0,94,0.00,,,0.00,VWS V14.01,2013-06-17 06:15:00,
2013-06-17 02:20:00,56.7,55.0,29.79,SSE,158,0.0,1.0,94,0.00,,,0.00,VWS V14.01,2013-06-17 06:20:00,
2013-06-17 02:25:00,56.8,55.1,29.80,ESE,112,1.0,4.0,94,0.00,,,0.00,VWS V14.01,2013-06-17 06:25:00,
2013-06-17 02:30:00,56.8,55.1,29.79,ESE,112,0.0,1.0,94,0.00,,,0.00,VWS V14.01,2013-06-17 06:30:00,
2013-06-17 02:35:00,56.6,54.9,29.79,ESE,112,1.0,4.0,94,0.00,,,0.00,VWS V14.01,2013-06-17 06:35:00,
2013-06-17 02:40:00,56.6,54.9,29.80,ENE,68,0.0,2.0,94,0.00,,,0.00,VWS V14.01,2013-06-17 06:40:00,
2013-06-17 02:45:00,56.6,54.9,29.80,ENE,68,0.0,2.0,94,0.00,,,0.00,VWS V14.01,2013-06-17 06:45:00,
2013-06-17 02:50:00,56.6,54.9,29.80,ENE,68,1.0,3.0,94,0.00,,,0.00,VWS V14.01,2013-06-17 06:50:00,
2013-06-17 02:55:00,56.4,54.7,29.80,ENE,68,1.0,2.0,94,0.00,,,0.00,VWS V14.01,2013-06-17 06:55:00,
2013-06-17 03:00:00,56.3,54.6,29.80,ENE,68,1.0,4.0,94,0.00,,,0.00,VWS V14.01,2013-06-17 07:00:00,
2013-06-17 03:05:00,56.5,54.8,29.80,ENE,68,0.0,2.0,94,0.00,,,0.00,VWS V14.01,2013-06-17 07:05:00,
2013-06-17 03:10:00,56.5,54.8,29.80,ENE,68,1.0,3.0,94,0.00,,,0.00,VWS V14.01,2013-06-17 07:10:00,
2013-06-17 03:15:00,56.6,54.9,29.80,ENE,68,0.0,3.0,94,0.00,,,0.00,VWS V14.01,2013-06-17 07:15:00,
2013-06-17 03:20:00,56.7,55.0,29.80,WNW,292,0.0,3.0,94,0.00,,,0.00,VWS V14.01,2013-06-17 07:20:00,
2013-06-17 03:25:00,56.8,55.1,29.79,West,270,1.0,4.0,94,0.00,,,0.00,VWS V14.01,2013-06-17 07:25:00,
2013-06-17 03:30:00,57.0,55.3,29.79,ESE,112,1.0,4.0,94,0.00,,,0.00,VWS V14.01,2013-06-17 07:30:00,
2013-06-17 03:35:00,57.3,55.6,29.78,East,90,3.0,6.0,94,0.01,,,0.01,VWS V14.01,2013-06-17 07:35:00,
2013-06-17 03:40:00,57.5,55.5,29.78,ESE,112,4.0,12.0,93,0.01,,,0.01,VWS V14.01,2013-06-17 07:40:00,
2013-06-17 03:45:00,57.9,55.6,29.78,ENE,68,3.0,9.0,92,0.01,,,0.01,VWS V14.01,2013-06-17 07:45:00,
2013-06-17 03:50:00,58.6,56.3,29.78,ESE,112,3.0,7.0,92,0.01,,,0.01,VWS V14.01,2013-06-17 07:50:00,
2013-06-17 03:55:00,59.0,56.1,29.79,East,90,2.0,7.0,90,0.01,,,0.01,VWS V14.01,2013-06-17 07:55:00,
2013-06-17 04:00:00,59.0,56.1,29.78,ESE,112,3.0,7.0,90,0.01,,,0.01,VWS V14.01,2013-06-17 08:00:00,
2013-06-17 04:05:00,59.2,56.0,29.78,East,90,4.0,9.0,89,0.01,,,0.01,VWS V14.01,2013-06-17 08:05:00,
2013-06-17 04:10:00,59.3,55.8,29.78,East,90,4.0,9.0,88,0.01,,,0.01,VWS V14.01,2013-06-17 08:10:00,
2013-06-17 04:15:00,59.5,56.0,29.78,ENE,68,3.0,10.0,88,0.01,,,0.01,VWS V14.01,2013-06-17 08:15:00,
2013-06-17 04:20:00,59.6,56.0,29.79,ENE,68,3.0,7.0,88,0.01,,,0.01,VWS V14.01,2013-06-17 08:20:00,
2013-06-17 04:25:00,59.6,56.0,29.79,East,90,3.0,7.0,88,0.01,,,0.01,VWS V14.01,2013-06-17 08:25:00,
2013-06-17 04:30:00,59.5,56.0,29.79,East,90,5.0,11.0,88,0.01,,,0.01,VWS V14.01,2013-06-17 08:30:00,
2013-06-17 04:35:00,59.3,55.8,29.79,East,90,4.0,9.0,88,0.01,,,0.01,VWS V14.01,2013-06-17 08:35:00,
2013-06-17 04:40:00,59.2,55.7,29.79,NE,45,3.0,10.0,88,0.00,,,0.01,VWS V14.01,2013-06-17 08:40:00,
2013-06-17 04:45:00,59.1,55.9,29.79,East,90,4.0,9.0,89,0.00,,,0.01,VWS V14.01,2013-06-17 08:45:00,
2013-06-17 04:50:00,59.2,55.7,29.80,East,90,3.0,7.0,88,0.00,,,0.01,VWS V14.01,2013-06-17 08:50:00,
2013-06-17 04:55:00,59.3,56.1,29.80,East,90,4.0,10.0,89,0.00,,,0.01,VWS V14.01,2013-06-17 08:55:00,
2013-06-17 05:00:00,59.2,56.0,29.80,East,90,3.0,6.0,89,0.00,,,0.01,VWS V14.01,2013-06-17 09:00:00,
2013-06-17 05:05:00,59.0,55.8,29.80,ESE,112,2.0,5.0,89,0.00,,,0.01,VWS V14.01,2013-06-17 09:05:00,
2013-06-17 05:10:00,59.2,56.0,29.80,East,90,2.0,6.0,89,0.00,,,0.01,VWS V14.01,2013-06-17 09:10:00,
2013-06-17 05:15:00,59.4,56.2,29.80,ENE,68,4.0,7.0,89,0.00,,,0.01,VWS V14.01,2013-06-17 09:15:00,
2013-06-17 05:20:00,59.4,56.2,29.81,ESE,112,3.0,7.0,89,0.00,,,0.01,VWS V14.01,2013-06-17 09:20:00,
2013-06-17 05:25:00,59.5,56.3,29.81,East,90,4.0,10.0,89,0.00,,,0.01,VWS V14.01,2013-06-17 09:25:00,
2013-06-17 05:30:00,59.5,56.3,29.81,East,90,4.0,7.0,89,0.00,,,0.01,VWS V14.01,2013-06-17 09:30:00,
2013-06-17 05:35:00,59.7,56.5,29.81,ESE,112,1.0,6.0,89,0.00,,,0.01,VWS V14.01,2013-06-17 09:35:00,
2013-06-17 05:40:00,59.8,56.6,29.81,ESE,112,1.0,5.0,89,0.00,,,0.01,VWS V14.01,2013-06-17 09:40:00,
2013-06-17 05:45:00,59.8,56.6,29.80,East,90,1.0,5.0,89,0.00,,,0.01,VWS V14.01,2013-06-17 09:45:00,
2013-06-17 05:50:00,59.7,56.5,29.81,East,90,2.0,6.0,89,0.00,,,0.01,VWS V14.01,2013-06-17 09:50:00,
2013-06-17 05:55:00,59.8,56.6,29.80,East,90,1.0,5.0,89,0.00,,,0.01,VWS V14.01,2013-06-17 09:55:00,
2013-06-17 06:00:00,59.9,56.7,29.81,East,90,4.0,11.0,89,0.00,,,0.01,VWS V14.01,2013-06-17 10:00:00,
2013-06-17 06:05:00,60.0,56.8,29.81,East,90,4.0,12.0,89,0.00,,,0.01,VWS V14.01,2013-06-17 10:05:00,
2013-06-17 06:10:00,60.2,57.0,29.81,ENE,68,2.0,6.0,89,0.00,,,0.01,VWS V14.01,2013-06-17 10:10:00,
2013-06-17 06:15:00,60.3,57.0,29.81,East,90,3.0,9.0,89,0.00,,,0.01,VWS V14.01,2013-06-17 10:15:00,
2013-06-17 06:20:00,60.5,56.9,29.81,East,90,3.0,9.0,88,0.00,,,0.01,VWS V14.01,2013-06-17 10:20:00,
2013-06-17 06:25:00,60.6,57.0,29.82,ENE,68,3.0,10.0,88,0.00,,,0.01,VWS V14.01,2013-06-17 10:25:00,
2013-06-17 06:30:00,60.6,57.0,29.82,East,90,4.0,11.0,88,0.00,,,0.01,VWS V14.01,2013-06-17 10:30:00,
2013-06-17 06:35:00,60.8,57.2,29.82,ENE,68,2.0,7.0,88,0.00,,,0.01,VWS V14.01,2013-06-17 10:35:00,
2013-06-17 06:40:00,61.1,57.5,29.82,East,90,2.0,9.0,88,0.00,,,0.01,VWS V14.01,2013-06-17 10:40:00,
2013-06-17 06:45:00,61.2,57.3,29.82,East,90,3.0,7.0,87,0.00,,,0.01,VWS V14.01,2013-06-17 10:45:00,
2013-06-17 06:50:00,61.3,57.4,29.82,ESE,112,2.0,10.0,87,0.00,,,0.01,VWS V14.01,2013-06-17 10:50:00,
2013-06-17 06:55:00,61.3,57.4,29.83,ENE,68,1.0,5.0,87,0.00,,,0.01,VWS V14.01,2013-06-17 10:55:00,
2013-06-17 07:00:00,61.3,57.7,29.82,SE,135,1.0,5.0,88,0.00,,,0.01,VWS V14.01,2013-06-17 11:00:00,
2013-06-17 07:05:00,61.3,57.7,29.83,SE,135,1.0,5.0,88,0.00,,,0.01,VWS V14.01,2013-06-17 11:05:00,
2013-06-17 07:10:00,61.4,57.8,29.83,ESE,112,2.0,9.0,88,0.00,,,0.01,VWS V14.01,2013-06-17 11:10:00,
2013-06-17 07:15:00,61.4,57.8,29.82,SSE,158,2.0,7.0,88,0.00,,,0.01,VWS V14.01,2013-06-17 11:15:00,
2013-06-17 07:20:00,61.3,57.7,29.83,WSW,248,1.0,10.0,88,0.00,,,0.01,VWS V14.01,2013-06-17 11:20:00,
2013-06-17 07:25:00,61.4,58.1,29.82,WSW,248,3.0,11.0,89,0.00,,,0.01,VWS V14.01,2013-06-17 11:25:00,
2013-06-17 07:30:00,61.5,58.2,29.83,East,90,3.0,9.0,89,0.00,,,0.01,VWS V14.01,2013-06-17 11:30:00,
2013-06-17 07:35:00,61.6,58.3,29.83,East,90,4.0,10.0,89,0.00,,,0.01,VWS V14.01,2013-06-17 11:35:00,
2013-06-17 07:40:00,61.7,58.4,29.83,East,90,5.0,9.0,89,0.00,,,0.01,VWS V14.01,2013-06-17 11:40:00,
2013-06-17 07:45:00,61.6,58.3,29.83,East,90,4.0,10.0,89,0.00,,,0.01,VWS V14.01,2013-06-17 11:45:00,
2013-06-17 07:50:00,61.8,58.8,29.83,East,90,4.0,10.0,90,0.00,,,0.01,VWS V14.01,2013-06-17 11:50:00,
2013-06-17 07:55:00,62.3,59.0,29.83,ESE,112,4.0,11.0,89,0.00,,,0.01,VWS V14.01,2013-06-17 11:55:00,
2013-06-17 08:00:00,62.7,59.1,29.83,East,90,4.0,13.0,88,0.00,,,0.01,VWS V14.01,2013-06-17 12:00:00,
2013-06-17 08:05:00,63.4,59.5,29.83,ENE,68,2.0,6.0,87,0.00,,,0.01,VWS V14.01,2013-06-17 12:05:00,
2013-06-17 08:10:00,64.1,59.8,29.83,ENE,68,2.0,11.0,86,0.00,,,0.01,VWS V14.01,2013-06-17 12:10:00,
2013-06-17 08:15:00,64.6,60.3,29.83,WNW,292,2.0,5.0,86,0.00,,,0.01,VWS V14.01,2013-06-17 12:15:00,
2013-06-17 08:20:00,65.1,60.5,29.83,SE,135,1.0,6.0,85,0.00,,,0.01,VWS V14.01,2013-06-17 12:20:00,
2013-06-17 08:25:00,65.4,60.5,29.83,East,90,3.0,10.0,84,0.00,,,0.01,VWS V14.01,2013-06-17 12:25:00,
2013-06-17 08:30:00,65.3,60.7,29.83,ENE,68,2.0,7.0,85,0.00,,,0.01,VWS V14.01,2013-06-17 12:30:00,
2013-06-17 08:35:00,65.6,60.6,29.83,East,90,2.0,6.0,84,0.00,,,0.01,VWS V14.01,2013-06-17 12:35:00,
2013-06-17 08:40:00,66.0,61.0,29.83,East,90,3.0,12.0,84,0.00,,,0.01,VWS V14.01,2013-06-17 12:40:00,
2013-06-17 08:45:00,66.3,61.3,29.83,ENE,68,2.0,7.0,84,0.00,,,0.01,VWS V14.01,2013-06-17 12:45:00,
2013-06-17 08:50:00,66.8,61.5,29.83,West,270,1.0,5.0,83,0.00,,,0.01,VWS V14.01,2013-06-17 12:50:00,
2013-06-17 08:55:00,67.4,61.7,29.83,ESE,112,2.0,9.0,82,0.00,,,0.01,VWS V14.01,2013-06-17 12:55:00,
2013-06-17 09:00:00,67.9,62.2,29.83,WSW,248,1.0,3.0,82,0.00,,,0.01,VWS V14.01,2013-06-17 13:00:00,
2013-06-17 09:05:00,68.4,62.3,29.83,WNW,292,1.0,7.0,81,0.00,,,0.01,VWS V14.01,2013-06-17 13:05:00,
2013-06-17 09:10:00,68.6,62.5,29.83,ENE,68,1.0,4.0,81,0.00,,,0.01,VWS V14.01,2013-06-17 13:10:00,
2013-06-17 09:15:00,69.0,62.6,29.83,East,90,1.0,3.0,80,0.00,,,0.01,VWS V14.01,2013-06-17 13:15:00,
2013-06-17 09:20:00,69.2,62.8,29.83,SW,225,1.0,3.0,80,0.00,,,0.01,VWS V14.01,2013-06-17 13:20:00,
2013-06-17 09:25:00,69.6,62.4,29.83,East,90,1.0,5.0,78,0.00,,,0.01,VWS V14.01,2013-06-17 13:25:00,
2013-06-17 09:30:00,69.8,62.6,29.83,East,90,2.0,6.0,78,0.00,,,0.01,VWS V14.01,2013-06-17 13:30:00,
2013-06-17 09:35:00,70.2,61.9,29.83,ENE,68,1.0,5.0,75,0.00,,,0.01,VWS V14.01,2013-06-17 13:35:00,
2013-06-17 09:40:00,70.6,62.3,29.83,WNW,292,1.0,5.0,75,0.00,,,0.01,VWS V14.01,2013-06-17 13:40:00,
2013-06-17 09:45:00,70.3,62.8,29.83,SE,135,1.0,4.0,77,0.00,,,0.01,VWS V14.01,2013-06-17 13:45:00,
2013-06-17 09:50:00,70.0,62.5,29.83,ESE,112,1.0,4.0,77,0.00,,,0.01,VWS V14.01,2013-06-17 13:50:00,
2013-06-17 09:55:00,70.3,62.8,29.83,ENE,68,1.0,5.0,77,0.00,,,0.01,VWS V14.01,2013-06-17 13:55:00,
2013-06-17 10:00:00,70.7,62.0,29.83,SE,135,1.0,5.0,74,0.00,,,0.01,VWS V14.01,2013-06-17 14:00:00,
2013-06-17 10:05:00,70.6,62.7,29.83,SE,135,1.0,2.0,76,0.00,,,0.01,VWS V14.01,2013-06-17 14:05:00,
2013-06-17 10:10:00,70.1,62.6,29.83,East,90,0.0,2.0,77,0.00,,,0.01,VWS V14.01,2013-06-17 14:10:00,
2013-06-17 10:15:00,70.2,61.9,29.83,East,90,1.0,4.0,75,0.00,,,0.01,VWS V14.01,2013-06-17 14:15:00,
2013-06-17 10:20:00,70.8,62.1,29.83,West,270,1.0,4.0,74,0.00,,,0.01,VWS V14.01,2013-06-17 14:20:00,
2013-06-17 10:25:00,71.4,63.1,29.83,WSW,248,0.0,3.0,75,0.00,,,0.01,VWS V14.01,2013-06-17 14:25:00,
2013-06-17 10:30:00,71.7,61.0,29.83,West,270,1.0,6.0,69,0.00,,,0.01,VWS V14.01,2013-06-17 14:30:00,
2013-06-17 10:35:00,71.8,62.3,29.83,WSW,248,1.0,5.0,72,0.00,,,0.01,VWS V14.01,2013-06-17 14:35:00,
2013-06-17 10:40:00,72.3,61.6,29.82,ENE,68,0.0,3.0,69,0.00,,,0.01,VWS V14.01,2013-06-17 14:40:00,
2013-06-17 10:45:00,72.2,61.9,29.82,West,270,1.0,6.0,70,0.00,,,0.01,VWS V14.01,2013-06-17 14:45:00,
2013-06-17 10:50:00,71.8,61.1,29.82,West,270,2.0,7.0,69,0.00,,,0.01,VWS V14.01,2013-06-17 14:50:00,
2013-06-17 10:55:00,71.8,61.9,29.83,West,270,1.0,6.0,71,0.00,,,0.01,VWS V14.01,2013-06-17 14:55:00,
2013-06-17 11:00:00,72.4,61.2,29.83,West,270,1.0,5.0,68,0.00,,,0.01,VWS V14.01,2013-06-17 15:00:00,
2013-06-17 11:05:00,73.1,63.5,29.82,West,270,1.0,5.0,72,0.00,,,0.01,VWS V14.01,2013-06-17 15:05:00,
2013-06-17 11:10:00,73.6,62.0,29.82,East,90,1.0,5.0,67,0.00,,,0.01,VWS V14.01,2013-06-17 15:10:00,
2013-06-17 11:15:00,72.9,61.7,29.82,West,270,1.0,4.0,68,0.00,,,0.01,VWS V14.01,2013-06-17 15:15:00,
2013-06-17 11:20:00,71.9,61.2,29.82,West,270,0.0,1.0,69,0.00,,,0.01,VWS V14.01,2013-06-17 15:20:00,
2013-06-17 11:25:00,71.6,61.7,29.82,WSW,248,0.0,4.0,71,0.00,,,0.01,VWS V14.01,2013-06-17 15:25:00,
2013-06-17 11:30:00,71.9,61.2,29.82,South,180,1.0,7.0,69,0.00,,,0.01,VWS V14.01,2013-06-17 15:30:00,
2013-06-17 11:35:00,72.4,60.8,29.82,WSW,248,0.0,3.0,67,0.00,,,0.01,VWS V14.01,2013-06-17 15:35:00,
2013-06-17 11:40:00,72.4,61.7,29.82,WSW,248,0.0,1.0,69,0.00,,,0.01,VWS V14.01,2013-06-17 15:40:00,
2013-06-17 11:45:00,72.8,61.2,29.81,WSW,248,0.0,2.0,67,0.00,,,0.01,VWS V14.01,2013-06-17 15:45:00,
2013-06-17 11:50:00,72.9,63.0,29.81,WNW,292,0.0,1.0,71,0.00,,,0.01,VWS V14.01,2013-06-17 15:50:00,
2013-06-17 11:55:00,72.7,63.5,29.81,WNW,292,0.0,1.0,73,0.00,,,0.01,VWS V14.01,2013-06-17 15:55:00,
2013-06-17 12:00:00,72.2,63.1,29.81,WNW,292,0.0,1.0,73,0.00,,,0.01,VWS V14.01,2013-06-17 16:00:00,
2013-06-17 12:05:00,71.6,63.6,29.81,WNW,292,0.0,1.0,76,0.00,,,0.01,VWS V14.01,2013-06-17 16:05:00,
2013-06-17 12:10:00,71.2,64.0,29.81,WNW,292,0.0,1.0,78,0.00,,,0.01,VWS V14.01,2013-06-17 16:10:00,
2013-06-17 12:15:00,70.8,62.9,29.81,WNW,292,0.0,0.0,76,0.00,,,0.01,VWS V14.01,2013-06-17 16:15:00,
2013-06-17 12:20:00,70.4,63.2,29.81,WNW,292,0.0,0.0,78,0.00,,,0.01,VWS V14.01,2013-06-17 16:20:00,
2013-06-17 12:25:00,70.4,63.6,29.80,WNW,292,0.0,1.0,79,0.00,,,0.01,VWS V14.01,2013-06-17 16:25:00,
2013-06-17 12:30:00,70.0,63.2,29.81,WNW,292,0.0,1.0,79,0.00,,,0.01,VWS V14.01,2013-06-17 16:30:00,
2013-06-17 12:35:00,69.4,62.2,29.81,WNW,292,0.0,0.0,78,0.00,,,0.01,VWS V14.01,2013-06-17 16:35:00,
2013-06-17 12:40:00,68.8,62.4,29.81,NW,315,0.0,1.0,80,0.00,,,0.01,VWS V14.01,2013-06-17 16:40:00,
2013-06-17 12:45:00,68.6,63.2,29.81,NW,315,0.0,0.0,83,0.00,,,0.01,VWS V14.01,2013-06-17 16:45:00,
2013-06-17 12:50:00,68.7,63.3,29.81,NW,315,0.0,0.0,83,0.00,,,0.01,VWS V14.01,2013-06-17 16:50:00,
2013-06-17 12:55:00,69.0,63.3,29.80,NW,315,0.0,0.0,82,0.00,,,0.01,VWS V14.01,2013-06-17 16:55:00,
2013-06-17 13:00:00,69.3,63.2,29.80,WNW,292,0.0,1.0,81,0.00,,,0.01,VWS V14.01,2013-06-17 17:00:00,
2013-06-17 13:05:00,69.7,63.6,29.80,WNW,292,0.0,1.0,81,0.00,,,0.01,VWS V14.01,2013-06-17 17:05:00,
2013-06-17 13:10:00,70.2,63.0,29.79,WNW,292,0.0,2.0,78,0.00,,,0.01,VWS V14.01,2013-06-17 17:10:00,
2013-06-17 13:15:00,71.3,63.0,29.79,WNW,292,0.0,2.0,75,0.00,,,0.01,VWS V14.01,2013-06-17 17:15:00,
2013-06-17 13:20:00,72.2,61.5,29.79,WNW,292,0.0,1.0,69,0.00,,,0.01,VWS V14.01,2013-06-17 17:20:00,
2013-06-17 13:25:00,72.9,61.7,29.79,WNW,292,0.0,1.0,68,0.00,,,0.01,VWS V14.01,2013-06-17 17:25:00,
2013-06-17 13:30:00,73.1,63.9,29.79,WNW,292,0.0,2.0,73,0.00,,,0.01,VWS V14.01,2013-06-17 17:30:00,
2013-06-17 13:35:00,72.6,62.3,29.79,West,270,1.0,4.0,70,0.00,,,0.01,VWS V14.01,2013-06-17 17:35:00,
2013-06-17 13:40:00,71.7,62.6,29.79,West,270,0.0,2.0,73,0.00,,,0.01,VWS V14.01,2013-06-17 17:40:00,
2013-06-17 13:45:00,71.5,62.8,29.79,West,270,0.0,4.0,74,0.00,,,0.01,VWS V14.01,2013-06-17 17:45:00,
2013-06-17 13:50:00,71.6,63.3,29.79,West,270,0.0,4.0,75,0.00,,,0.01,VWS V14.01,2013-06-17 17:50:00,
2013-06-17 13:55:00,71.4,62.3,29.80,West,270,0.0,2.0,73,0.00,,,0.01,VWS V14.01,2013-06-17 17:55:00,
2013-06-17 14:00:00,71.0,61.5,29.81,East,90,1.0,7.0,72,0.00,,,0.01,VWS V14.01,2013-06-17 18:00:00,
2013-06-17 14:05:00,70.4,60.6,29.84,SW,225,2.0,11.0,71,0.00,,,0.01,VWS V14.01,2013-06-17 18:05:00,
2013-06-17 14:10:00,69.5,58.9,29.84,South,180,3.0,11.0,69,0.00,,,0.01,VWS V14.01,2013-06-17 18:10:00,
2013-06-17 14:15:00,68.3,58.9,29.84,NE,45,3.0,10.0,72,0.00,,,0.01,VWS V14.01,2013-06-17 18:15:00,
2013-06-17 14:20:00,66.9,58.0,29.84,East,90,2.0,7.0,73,0.00,,,0.01,VWS V14.01,2013-06-17 18:20:00,
2013-06-17 14:25:00,65.9,58.1,29.84,NE,45,1.0,4.0,76,0.00,,,0.01,VWS V14.01,2013-06-17 18:25:00,
2013-06-17 14:30:00,65.4,58.4,29.84,NE,45,0.0,3.0,78,0.00,,,0.01,VWS V14.01,2013-06-17 18:30:00,
2013-06-17 14:35:00,65.4,57.7,29.84,ENE,68,1.0,9.0,76,0.00,,,0.01,VWS V14.01,2013-06-17 18:35:00,
2013-06-17 14:40:00,65.8,58.0,29.84,ENE,68,0.0,3.0,76,0.00,,,0.01,VWS V14.01,2013-06-17 18:40:00,
2013-06-17 14:45:00,66.2,56.1,29.84,East,90,2.0,5.0,70,0.00,,,0.01,VWS V14.01,2013-06-17 18:45:00,
2013-06-17 14:50:00,67.2,58.3,29.84,NE,45,0.0,2.0,73,0.00,,,0.01,VWS V14.01,2013-06-17 18:50:00,
2013-06-17 14:55:00,68.8,57.8,29.84,SE,135,1.0,3.0,68,0.00,,,0.01,VWS V14.01,2013-06-17 18:55:00,
2013-06-17 15:00:00,69.9,57.2,29.84,East,90,1.0,4.0,64,0.00,,,0.01,VWS V14.01,2013-06-17 19:00:00,
2013-06-17 15:05:00,70.0,58.1,29.84,NE,45,1.0,4.0,66,0.00,,,0.01,VWS V14.01,2013-06-17 19:05:00,
2013-06-17 15:10:00,70.3,58.4,29.84,NE,45,2.0,5.0,66,0.00,,,0.01,VWS V14.01,2013-06-17 19:10:00,
2013-06-17 15:15:00,70.7,57.9,29.84,NE,45,1.0,5.0,64,0.00,,,0.01,VWS V14.01,2013-06-17 19:15:00,
2013-06-17 15:20:00,70.4,58.1,29.83,West,270,1.0,9.0,65,0.00,,,0.01,VWS V14.01,2013-06-17 19:20:00,
2013-06-17 15:25:00,70.3,58.8,29.84,NNE,22,1.0,6.0,67,0.00,,,0.01,VWS V14.01,2013-06-17 19:25:00,
2013-06-17 15:30:00,70.5,58.6,29.84,NNE,22,0.0,1.0,66,0.00,,,0.01,VWS V14.01,2013-06-17 19:30:00,
2013-06-17 15:35:00,70.7,59.2,29.84,NNE,22,0.0,1.0,67,0.00,,,0.01,VWS V14.01,2013-06-17 19:35:00,
2013-06-17 15:40:00,70.6,59.5,29.84,NNE,22,1.0,2.0,68,0.00,,,0.01,VWS V14.01,2013-06-17 19:40:00,
2013-06-17 15:45:00,70.8,59.3,29.83,NE,45,1.0,3.0,67,0.00,,,0.01,VWS V14.01,2013-06-17 19:45:00,
2013-06-17 15:50:00,71.3,58.5,29.83,WSW,248,1.0,4.0,64,0.00,,,0.01,VWS V14.01,2013-06-17 19:50:00,
2013-06-17 15:55:00,71.1,58.3,29.83,SW,225,0.0,1.0,64,0.00,,,0.01,VWS V14.01,2013-06-17 19:55:00,
2013-06-17 16:00:00,71.2,59.3,29.82,SW,225,0.0,3.0,66,0.00,,,0.01,VWS V14.01,2013-06-17 20:00:00,
2013-06-17 16:05:00,71.1,59.6,29.83,SW,225,0.0,1.0,67,0.00,,,0.01,VWS V14.01,2013-06-17 20:05:00,
2013-06-17 16:10:00,70.7,59.6,29.83,NE,45,1.0,5.0,68,0.00,,,0.01,VWS V14.01,2013-06-17 20:10:00,
2013-06-17 16:15:00,70.0,61.3,29.84,NE,45,0.0,2.0,74,0.01,,,0.02,VWS V14.01,2013-06-17 20:15:00,
2013-06-17 16:20:00,69.4,61.1,29.83,NE,45,0.0,1.0,75,0.02,,,0.03,VWS V14.01,2013-06-17 20:20:00,
2013-06-17 16:25:00,68.2,61.5,29.84,NNE,22,0.0,1.0,79,0.05,,,0.06,VWS V14.01,2013-06-17 20:25:00,
2013-06-17 16:30:00,66.9,61.6,29.85,NNE,22,0.0,0.0,83,0.15,,,0.16,VWS V14.01,2013-06-17 20:30:00,
2013-06-17 16:35:00,65.9,61.6,29.84,NNE,22,0.0,0.0,86,0.21,,,0.22,VWS V14.01,2013-06-17 20:35:00,
2013-06-17 16:40:00,65.4,61.4,29.84,NNE,22,0.0,0.0,87,0.24,,,0.25,VWS V14.01,2013-06-17 20:40:00,
2013-06-17 16:45:00,65.1,61.5,29.83,NE,45,0.0,1.0,88,0.24,,,0.25,VWS V14.01,2013-06-17 20:45:00,
2013-06-17 16:50:00,64.8,61.5,29.83,NE,45,0.0,1.0,89,0.24,,,0.25,VWS V14.01,2013-06-17 20:50:00,
2013-06-17 16:55:00,64.7,61.7,29.82,NE,45,0.0,0.0,90,0.24,,,0.25,VWS V14.01,2013-06-17 20:55:00,
2013-06-17 17:00:00,64.9,61.9,29.82,NE,45,0.0,1.0,90,0.24,,,0.25,VWS V14.01,2013-06-17 21:00:00,
2013-06-17 17:05:00,64.7,61.4,29.83,NE,45,0.0,0.0,89,0.24,,,0.25,VWS V14.01,2013-06-17 21:05:00,
2013-06-17 17:10:00,64.8,61.8,29.83,NE,45,0.0,1.0,90,0.24,,,0.25,VWS V14.01,2013-06-17 21:10:00,
2013-06-17 17:15:00,65.2,62.2,29.83,NE,45,0.0,0.0,90,0.24,,,0.25,VWS V14.01,2013-06-17 21:15:00,
2013-06-17 17:20:00,65.2,62.2,29.83,NE,45,0.0,0.0,90,0.23,,,0.25,VWS V14.01,2013-06-17 21:20:00,
2013-06-17 17:25:00,65.3,62.3,29.83,NE,45,0.0,1.0,90,0.22,,,0.25,VWS V14.01,2013-06-17 21:25:00,
2013-06-17 17:30:00,65.3,62.3,29.83,NE,45,0.0,0.0,90,0.19,,,0.25,VWS V14.01,2013-06-17 21:30:00,
2013-06-17 17:35:00,65.2,62.2,29.83,NE,45,0.0,0.0,90,0.09,,,0.25,VWS V14.01,2013-06-17 21:35:00,
2013-06-17 17:40:00,65.5,62.8,29.83,NE,45,0.0,0.0,91,0.03,,,0.25,VWS V14.01,2013-06-17 21:40:00,
2013-06-17 17:45:00,65.6,62.6,29.83,NE,45,0.0,1.0,90,0.00,,,0.25,VWS V14.01,2013-06-17 21:45:00,
2013-06-17 17:50:00,65.4,62.7,29.83,NE,45,0.0,0.0,91,0.00,,,0.25,VWS V14.01,2013-06-17 21:50:00,
2013-06-17 17:55:00,65.4,62.4,29.83,NE,45,0.0,1.0,90,0.00,,,0.25,VWS V14.01,2013-06-17 21:55:00,
2013-06-17 18:00:00,65.2,62.5,29.84,NE,45,0.0,0.0,91,0.00,,,0.25,VWS V14.01,2013-06-17 22:00:00,
2013-06-17 18:05:00,65.2,62.5,29.83,NE,45,0.0,0.0,91,0.00,,,0.25,VWS V14.01,2013-06-17 22:05:00,
2013-06-17 18:10:00,65.4,63.0,29.84,NE,45,0.0,0.0,92,0.00,,,0.25,VWS V14.01,2013-06-17 22:10:00,
2013-06-17 18:15:00,65.3,62.9,29.84,NE,45,0.0,0.0,92,0.01,,,0.26,VWS V14.01,2013-06-17 22:15:00,
2013-06-17 18:20:00,65.3,62.9,29.85,NE,45,0.0,1.0,92,0.03,,,0.28,VWS V14.01,2013-06-17 22:20:00,
2013-06-17 18:25:00,65.2,62.8,29.85,NE,45,0.0,2.0,92,0.10,,,0.35,VWS V14.01,2013-06-17 22:25:00,
2013-06-17 18:30:00,64.8,62.4,29.85,NE,45,0.0,0.0,92,0.12,,,0.37,VWS V14.01,2013-06-17 22:30:00,
2013-06-17 18:35:00,64.5,62.1,29.85,NW,315,0.0,1.0,92,0.13,,,0.38,VWS V14.01,2013-06-17 22:35:00,
2013-06-17 18:40:00,64.5,62.1,29.85,NW,315,0.0,0.0,92,0.13,,,0.38,VWS V14.01,2013-06-17 22:40:00,
2013-06-17 18:45:00,64.5,62.1,29.86,NW,315,0.0,1.0,92,0.13,,,0.38,VWS V14.01,2013-06-17 22:45:00,
2013-06-17 18:50:00,64.4,62.0,29.86,NW,315,0.0,0.0,92,0.13,,,0.38,VWS V14.01,2013-06-17 22:50:00,
2013-06-17 18:55:00,64.3,61.9,29.86,NW,315,0.0,1.0,92,0.13,,,0.38,VWS V14.01,2013-06-17 22:55:00,
2013-06-17 19:00:00,64.0,61.6,29.86,NW,315,0.0,1.0,92,0.13,,,0.38,VWS V14.01,2013-06-17 23:00:00,
2013-06-17 19:05:00,63.5,61.1,29.86,NW,315,0.0,2.0,92,0.13,,,0.38,VWS V14.01,2013-06-17 23:05:00,
2013-06-17 19:10:00,63.0,60.6,29.86,NW,315,0.0,1.0,92,0.13,,,0.38,VWS V14.01,2013-06-17 23:10:00,
2013-06-17 19:15:00,62.6,60.2,29.86,NW,315,0.0,2.0,92,0.13,,,0.38,VWS V14.01,2013-06-17 23:15:00,
2013-06-17 19:20:00,62.1,59.8,29.86,NW,315,0.0,2.0,92,0.12,,,0.38,VWS V14.01,2013-06-17 23:20:00,
2013-06-17 19:25:00,61.7,59.4,29.86,NW,315,0.0,1.0,92,0.10,,,0.38,VWS V14.01,2013-06-17 23:25:00,
2013-06-17 19:30:00,61.3,59.0,29.86,NW,315,0.0,1.0,92,0.03,,,0.38,VWS V14.01,2013-06-17 23:30:00,
2013-06-17 19:35:00,61.1,58.8,29.87,NW,315,0.0,1.0,92,0.01,,,0.38,VWS V14.01,2013-06-17 23:35:00,
2013-06-17 19:40:00,60.9,58.6,29.87,NW,315,0.0,1.0,92,0.00,,,0.38,VWS V14.01,2013-06-17 23:40:00,
2013-06-17 19:45:00,60.8,58.8,29.87,NW,315,0.0,1.0,93,0.00,,,0.38,VWS V14.01,2013-06-17 23:45:00,
2013-06-17 19:50:00,60.8,58.8,29.87,NW,315,0.0,1.0,93,0.00,,,0.38,VWS V14.01,2013-06-17 23:50:00,
2013-06-17 19:55:00,60.7,58.7,29.87,NW,315,0.0,1.0,93,0.00,,,0.38,VWS V14.01,2013-06-17 23:55:00,
2013-06-17 20:00:00,60.6,58.6,29.87,NW,315,0.0,2.0,93,0.00,,,0.38,VWS V14.01,2013-06-18 00:00:00,
2013-06-17 20:05:00,60.4,58.4,29.87,NW,315,0.0,1.0,93,0.00,,,0.38,VWS V14.01,2013-06-18 00:05:00,
2013-06-17 20:10:00,60.4,58.4,29.87,NW,315,0.0,1.0,93,0.00,,,0.38,VWS V14.01,2013-06-18 00:10:00,
2013-06-17 20:15:00,60.3,58.3,29.87,NW,315,0.0,1.0,93,0.00,,,0.38,VWS V14.01,2013-06-18 00:15:00,
2013-06-17 20:20:00,60.3,58.3,29.87,NW,315,0.0,1.0,93,0.00,,,0.38,VWS V14.01,2013-06-18 00:20:00,
2013-06-17 20:25:00,60.2,58.2,29.87,NW,315,0.0,1.0,93,0.00,,,0.38,VWS V14.01,2013-06-18 00:25:00,
2013-06-17 20:30:00,60.1,58.1,29.87,NW,315,0.0,1.0,93,0.00,,,0.38,VWS V14.01,2013-06-18 00:30:00,
2013-06-17 20:35:00,60.0,58.0,29.87,NW,315,0.0,1.0,93,0.00,,,0.38,VWS V14.01,2013-06-18 00:35:00,
2013-06-17 20:40:00,60.0,58.0,29.87,NW,315,0.0,1.0,93,0.00,,,0.38,VWS V14.01,2013-06-18 00:40:00,
2013-06-17 20:45:00,59.9,57.9,29.88,NW,315,0.0,0.0,93,0.00,,,0.38,VWS V14.01,2013-06-18 00:45:00,
2013-06-17 20:50:00,59.7,57.7,29.88,NW,315,0.0,0.0,93,0.00,,,0.38,VWS V14.01,2013-06-18 00:50:00,
2013-06-17 20:55:00,59.6,57.6,29.89,NW,315,0.0,0.0,93,0.00,,,0.38,VWS V14.01,2013-06-18 00:55:00,
2013-06-17 21:00:00,59.6,57.9,29.89,NW,315,0.0,0.0,94,0.00,,,0.38,VWS V14.01,2013-06-18 01:00:00,
2013-06-17 21:05:00,59.6,57.9,29.89,NW,315,0.0,0.0,94,0.00,,,0.38,VWS V14.01,2013-06-18 01:05:00,
2013-06-17 21:10:00,59.6,57.9,29.88,NW,315,0.0,1.0,94,0.00,,,0.38,VWS V14.01,2013-06-18 01:10:00,
2013-06-17 21:15:00,59.6,57.9,29.88,NW,315,0.0,1.0,94,0.00,,,0.38,VWS V14.01,2013-06-18 01:15:00,
2013-06-17 21:20:00,59.6,57.9,29.89,NW,315,0.0,1.0,94,0.00,,,0.38,VWS V14.01,2013-06-18 01:20:00,
2013-06-17 21:25:00,59.6,57.9,29.89,NW,315,0.0,2.0,94,0.00,,,0.38,VWS V14.01,2013-06-18 01:25:00,
2013-06-17 21:30:00,59.4,57.7,29.89,NW,315,0.0,2.0,94,0.00,,,0.38,VWS V14.01,2013-06-18 01:30:00,
2013-06-17 21:35:00,59.1,57.1,29.89,NNW,338,0.0,3.0,93,0.00,,,0.38,VWS V14.01,2013-06-18 01:35:00,
2013-06-17 21:40:00,59.0,57.3,29.89,NNW,338,0.0,2.0,94,0.00,,,0.38,VWS V14.01,2013-06-18 01:40:00,
2013-06-17 21:45:00,59.0,57.3,29.90,NNW,338,1.0,3.0,94,0.00,,,0.38,VWS V14.01,2013-06-18 01:45:00,
2013-06-17 21:50:00,59.0,57.3,29.90,NNW,338,0.0,2.0,94,0.00,,,0.38,VWS V14.01,2013-06-18 01:50:00,
2013-06-17 21:55:00,58.7,56.7,29.90,NNW,338,1.0,3.0,93,0.00,,,0.38,VWS V14.01,2013-06-18 01:55:00,
2013-06-17 22:00:00,58.5,56.5,29.90,East,90,2.0,7.0,93,0.00,,,0.38,VWS V14.01,2013-06-18 02:00:00,
2013-06-17 22:05:00,58.5,56.5,29.90,SE,135,1.0,3.0,93,0.00,,,0.38,VWS V14.01,2013-06-18 02:05:00,
2013-06-17 22:10:00,58.5,56.5,29.90,ENE,68,2.0,5.0,93,0.00,,,0.38,VWS V14.01,2013-06-18 02:10:00,
2013-06-17 22:15:00,58.4,56.1,29.90,East,90,1.0,3.0,92,0.00,,,0.38,VWS V14.01,2013-06-18 02:15:00,
2013-06-17 22:20:00,58.3,56.0,29.90,East,90,0.0,4.0,92,0.00,,,0.38,VWS V14.01,2013-06-18 02:20:00,
2013-06-17 22:25:00,58.1,55.8,29.91,SE,135,1.0,4.0,92,0.00,,,0.38,VWS V14.01,2013-06-18 02:25:00,
2013-06-17 22:30:00,58.1,55.5,29.91,ESE,112,2.0,6.0,91,0.00,,,0.38,VWS V14.01,2013-06-18 02:30:00,
2013-06-17 22:35:00,58.3,55.7,29.91,ENE,68,1.0,4.0,91,0.00,,,0.38,VWS V14.01,2013-06-18 02:35:00,
2013-06-17 22:40:00,58.4,55.5,29.91,ESE,112,0.0,2.0,90,0.00,,,0.38,VWS V14.01,2013-06-18 02:40:00,
2013-06-17 22:45:00,58.4,55.8,29.91,NNE,22,0.0,2.0,91,0.00,,,0.38,VWS V14.01,2013-06-18 02:45:00,
2013-06-17 22:50:00,58.4,55.8,29.92,North,0,1.0,3.0,91,0.00,,,0.38,VWS V14.01,2013-06-18 02:50:00,
2013-06-17 22:55:00,58.4,55.8,29.92,North,0,0.0,1.0,91,0.00,,,0.38,VWS V14.01,2013-06-18 02:55:00,
2013-06-17 23:00:00,58.4,55.8,29.92,North,0,0.0,1.0,91,0.00,,,0.38,VWS V14.01,2013-06-18 03:00:00,
2013-06-17 23:05:00,58.3,55.7,29.92,North,0,0.0,0.0,91,0.00,,,0.38,VWS V14.01,2013-06-18 03:05:00,
2013-06-17 23:10:00,58.2,55.9,29.92,North,0,0.0,1.0,92,0.00,,,0.38,VWS V14.01,2013-06-18 03:10:00,
2013-06-17 23:15:00,58.2,55.9,29.92,North,0,0.0,2.0,92,0.00,,,0.38,VWS V14.01,2013-06-18 03:15:00,
2013-06-17 23:20:00,58.2,55.9,29.92,North,0,1.0,3.0,92,0.00,,,0.38,VWS V14.01,2013-06-18 03:20:00,
2013-06-17 23:25:00,58.0,55.4,29.92,ENE,68,1.0,3.0,91,0.00,,,0.38,VWS V14.01,2013-06-18 03:25:00,
2013-06-17 23:30:00,58.0,55.1,29.92,East,90,1.0,4.0,90,0.00,,,0.38,VWS V14.01,2013-06-18 03:30:00,
2013-06-17 23:35:00,58.2,55.0,29.93,East,90,1.0,4.0,89,0.00,,,0.38,VWS V14.01,2013-06-18 03:35:00,
2013-06-17 23:40:00,58.3,55.1,29.93,NNE,22,1.0,4.0,89,0.00,,,0.38,VWS V14.01,2013-06-18 03:40:00,
2013-06-17 23:45:00,58.4,54.9,29.93,NE,45,1.0,5.0,88,0.00,,,0.38,VWS V14.01,2013-06-18 03:45:00,
2013-06-17 23:50:00,58.4,55.2,29.93,ENE,68,0.0,3.0,89,0.00,,,0.38,VWS V14.01,2013-06-18 03:50:00,
2013-06-17 23:55:00,58.5,55.3,29.94,ENE,68,0.0,1.0,89,0.00,,,0.38,VWS V14.01,2013-06-18 03:55:00,